TimeCST,TemperatureF,Dew PointF,Humidity,Sea Level PressureIn,VisibilityMPH,Wind Direction,Wind SpeedMPH,Gust SpeedMPH,PrecipitationIn,Events,Conditions,WindDirDegrees,DateUTC
12:53 AM,12.0,8.1,84,29.96,10.0,NNE,4.6,-,N/A,,Clear,30,2013-01-27 06:53:00
1:53 AM,12.9,8.1,81,29.94,10.0,NNE,6.9,-,N/A,,Clear,20,2013-01-27 07:53:00
2:53 AM,12.9,9.0,84,29.92,10.0,NNE,4.6,-,N/A,,Clear,30,2013-01-27 08:53:00
3:53 AM,14.0,9.0,80,29.89,10.0,NNE,5.8,-,N/A,,Clear,20,2013-01-27 09:53:00
4:53 AM,14.0,9.0,80,29.87,10.0,North,5.8,-,N/A,,Clear,10,2013-01-27 10:53:00
5:53 AM,14.0,9.0,80,29.86,10.0,North,5.8,-,N/A,,Clear,10,2013-01-27 11:53:00
6:53 AM,14.0,9.0,80,29.87,10.0,North,5.8,-,N/A,,Clear,10,2013-01-27 12:53:00
7:53 AM,14.0,10.0,84,29.87,10.0,North,8.1,-,N/A,,Clear,10,2013-01-27 13:53:00
8:53 AM,16.0,10.9,81,29.84,10.0,NNE,6.9,-,N/A,,Clear,20,2013-01-27 14:53:00
9:53 AM,18.0,12.9,81,29.84,10.0,NNE,5.8,-,N/A,,Clear,20,2013-01-27 15:53:00
10:53 AM,21.0,16.0,81,29.83,10.0,NNE,5.8,-,N/A,,Clear,20,2013-01-27 16:53:00
11:53 AM,25.0,19.0,78,29.83,-9999.0,NNE,4.6,-,N/A,,Clear,20,2013-01-27 17:53:00
12:53 PM,30.9,21.9,69,29.80,-9999.0,North,8.1,-,N/A,,Clear,350,2013-01-27 18:53:00
1:53 PM,34.0,26.1,73,29.76,10.0,NE,5.8,-,N/A,,Clear,50,2013-01-27 19:53:00
2:53 PM,36.0,27.0,70,29.76,10.0,NE,3.5,-,N/A,,Clear,40,2013-01-27 20:53:00
3:24 PM,35.6,28.4,75,29.71,10.0,ENE,3.5,-,N/A,,Mostly Cloudy,60,2013-01-27 21:24:00
3:53 PM,36.0,28.0,73,29.77,10.0,ENE,3.5,-,N/A,,Overcast,60,2013-01-27 21:53:00
4:53 PM,36.0,28.0,73,29.78,7.0,Calm,Calm,-,N/A,,Overcast,0,2013-01-27 22:53:00
5:17 PM,35.6,28.4,75,29.72,10.0,Calm,Calm,-,N/A,,Overcast,0,2013-01-27 23:17:00
5:53 PM,33.1,27.0,78,29.77,10.0,North,4.6,-,N/A,,Overcast,360,2013-01-27 23:53:00
6:53 PM,32.0,26.1,79,29.78,10.0,North,3.5,-,N/A,,Overcast,360,2013-01-28 00:53:00
7:23 PM,32.0,26.6,80,29.72,10.0,North,3.5,-,N/A,,Overcast,360,2013-01-28 01:23:00
7:40 PM,32.0,26.6,80,29.72,9.0,Calm,Calm,-,N/A,,Overcast,0,2013-01-28 01:40:00
7:53 PM,32.0,27.0,82,29.78,4.0,North,3.5,-,N/A,,Haze,350,2013-01-28 01:53:00
8:38 PM,30.2,28.4,93,29.74,1.8,NNW,6.9,-,N/A,,Overcast,330,2013-01-28 02:38:00
8:53 PM,30.0,28.0,92,29.80,1.2,NNW,6.9,-,N/A,,Overcast,330,2013-01-28 02:53:00
9:05 PM,30.2,28.4,93,29.74,0.8,North,3.5,-,N/A,,Mist,350,2013-01-28 03:05:00
9:35 PM,30.2,28.4,93,29.73,0.2,Calm,Calm,-,N/A,Fog,Light Freezing Fog,0,2013-01-28 03:35:00
9:53 PM,30.0,28.0,92,29.79,0.2,North,3.5,-,N/A,Fog,Light Freezing Fog,10,2013-01-28 03:53:00
10:53 PM,30.0,28.9,96,29.79,0.2,Calm,Calm,-,N/A,Fog,Light Freezing Fog,0,2013-01-28 04:53:00
11:42 PM,30.2,28.4,93,29.76,0.5,West,4.6,-,N/A,Fog,Light Freezing Fog,260,2013-01-28 05:42:00
11:53 PM,30.0,28.0,92,29.81,0.2,WSW,3.5,-,N/A,Fog,Light Freezing Fog,240,2013-01-28 05:53:00